DW2973 Weather Reports


time (UTC)temp
C
wind
direction
speed
KPH
gust
KPH
rain 1hr
cm
rain 24hr
cm
rain mn
cm
humidity
%
barometer
mb
20260504081533 10 269 0.0 0.0 0.00 0.00 0.15 91 1008.2
20260504050017 10 355 0.0 0.0 0.00 0.00 0.15 93 1005.6
20260504044515 10 355 0.0 0.0 0.00 0.00 0.15 93 1005.3
20260504043015 10 355 0.0 0.0 0.00 0.00 0.15 93 1005.2
20260504041514 10 360 0.0 0.0 0.00 0.00 0.15 93 1005.1
20260504040013 11 322 0.0 0.0 0.00 0.00 0.15 93 1005.1
20260504034510 11 355 0.0 0.0 0.00 0.00 0.15 93 1005.0
20260504033009 12 236 0.0 0.0 0.00 0.00 0.15 93 1005.0
20260504031509 12 248 3.2 0.0 0.00 0.00 0.15 93 1005.1
20260504030007 12 228 6.4 0.0 0.00 0.00 0.15 93 1005.0
20260504024505 12 242 3.2 0.0 0.00 0.00 0.15 94 1005.0
20260504023005 11 228 3.2 0.0 0.00 0.00 0.15 93 1005.1
20260504021504 11 265 0.0 0.0 0.00 0.00 0.15 93 1005.1
20260504020004 11 265 0.0 0.0 0.00 0.00 0.15 93 1005.2
20260504014505 11 265 0.0 0.0 0.00 0.00 0.15 93 1005.0
20260504013001 11 265 0.0 0.0 0.00 0.00 0.15 93 1005.1
20260504011501 11 265 0.0 0.0 0.00 0.00 0.15 93 1005.2
20260504010125 11 265 0.0 0.0 0.00 0.00 0.15 93 1005.2
20260504004600 11 265 0.0 0.0 0.00 0.00 0.15 93 1005.4
20260504003058 11 265 0.0 0.0 0.00 0.00 0.13 93 1005.2
20260504001611 11 265 0.0 0.0 0.00 0.00 0.13 92 1005.4
20260504000105 12 265 0.0 0.0 0.00 0.00 0.13 93 1005.4
20260503234553 12 265 0.0 0.0 0.00 0.00 0.13 92 1005.6
20260503233050 12 265 0.0 0.0 0.00 0.00 0.10 92 1005.8
20260503231553 12 265 0.0 0.0 0.00 0.00 0.10 92 1006.0
20260503230048 12 265 0.0 0.0 0.00 0.00 0.08 92 1006.2
20260503224549 12 265 0.0 0.0 0.00 0.00 0.05 92 1006.4
20260503223044 12 228 0.0 0.0 0.00 0.00 0.05 92 1006.4
20260503221543 12 228 0.0 0.0 0.00 0.00 0.03 91 1006.4
20260503220041 11 228 0.0 0.0 0.00 0.00 0.00 91 1006.5
20260503214548 11 228 0.0 0.0 0.00 0.00 0.43 91 1006.8
20260503213102 11 227 0.0 0.0 0.00 0.00 0.41 91 1006.9
20260503211600 11 227 0.0 0.0 0.00 0.00 0.33 90 1006.9
20260503210038 11 227 0.0 0.0 0.00 0.00 0.28 90 1006.3
20260503204552 11 227 0.0 0.0 0.00 0.00 0.28 89 1006.4
20260503203036 11 227 0.0 0.0 0.00 0.00 0.23 88 1006.8
20260503201531 12 227 0.0 0.0 0.00 0.00 0.18 87 1007.4
20260503200032 12 228 0.0 0.0 0.00 0.00 0.00 85 1007.8
20260503194531 12 228 0.0 0.0 0.00 0.00 0.00 85 1007.5
20260503193031 12 228 0.0 0.0 0.00 0.00 0.00 85 1007.4
20260503191530 12 228 0.0 0.0 0.00 0.00 0.00 84 1007.2
20260503190030 12 228 0.0 0.0 0.00 0.00 0.00 84 1007.4
20260503184529 12 228 0.0 0.0 0.00 0.00 0.00 83 1007.4
20260503183037 12 227 0.0 0.0 0.00 0.00 0.00 82 1007.4
20260503181527 13 227 0.0 0.0 0.00 0.00 0.00 82 1007.5
20260503180031 13 228 0.0 0.0 0.00 0.00 0.00 80 1007.6
20260503174533 13 228 0.0 0.0 0.00 0.00 0.00 78 1007.7
20260503173025 13 290 0.0 0.0 0.00 0.00 0.00 78 1007.5
20260503171528 13 259 0.0 0.0 0.00 0.00 0.00 77 1007.8